STARLINK-3791, 52269

Orbit data source: Space-Track

STARLINK-3791, 52269 is a payload satellite owned by SpaceX/Seattle (US) in LEO that was launched on Thu, 21 Apr 2022 UTC via an FALCON 9 launch vehicle from the Air Force Eastern Test Range (AFETR). Payload-class satellites include a variety of spacecraft equipped with specific instruments for various scientific and technological missions. These include communications satellites like Starlink; space stations such as the ISS; scientific satellites like the Hubble; Earth observation satellites from companies like Planet Labs, Umbra, and HawkEye 360; GPS; miniature CubeSats for education and research; and military/defense satellites.

Loading next visibility...
Identifier
52269, 2022-041J
Orbit
LEO
Country
Flag of USUS
Related business
Manufacturer
SpaceX/Seattle
Mission
Operational Commercial Communications
Bus & Motor
STARLINK, Unknown motor
Mass
297 kg wet, ~275 kg dry
Launch date (UTC)
2022-04-21 (4 years ago)
Launch vehicle
FALCON 9
Launch site
Air Force Eastern Test Range (AFETR)
Object type
Payload
Rocket body
Debris
Shape & HBR
Box + 1 Pan, 10.1 m
Radar Cross Section
11.087 m², Large (>1 m²)

Expand to show TLE details & history
Last TLE update: 18 hours ago

TLE from 18 hours ago
0 STARLINK-3791
1 52269U 22041J   26175.20756233  .00000218  00000-0  31762-4 0  9996
2 52269  53.1596 350.8051 0001254  88.9427 271.1708 15.08834368230442
Epoch: 2026-06-24T04:58Z
TLE epoch observation values (Epoch: 2026-06-24T04:58:53.385Z)
Latitude
-0.00002°
Longitude
3.71456°
Altitude
540.634 km
Speed
7.593 km/s
True Right ascension
23h 23m 13s
True Declination
0° 00' 00"
Sunlit
Object was in daylight at epoch
Visualization orbit readout
Latitude
Unknown
Longitude
Unknown
Altitude
Unknown
Speed
Unknown
Apparent Right ascension
Unknown
Apparent Declination
Unknown
Sunlit
N/A
Visualization observer readout
Local Sidereal Time
10:32:38
Azimuth
Unknown
Elevation
Unknown
Doppler factor
Unknown
Orbital elements
Apogee altitude
540.882 km
Perigee altitude
539.147 km
Semi-major axis
6,918.152 km
Eccentricity
0.00013
Inclination
53.1596°
RAAN
350.8051°
Arg. of periapsis
88.9427°
True anomaly
271.15643°
Mean anomaly
271.1708°
Eccentric anomaly
271.16362°
Mean motion
3.77188 °/min
Orbital period
95.44 mins
BSTAR
0.000031762
Loading maneuver chart data...
Computing Atmospheric mass density...
Loading historical data...
Loading historical data...
Loading historical data...
Loading historical data...
Loading historical data...
Loading historical data...
Loading historical data...

Documentation

Showing up to 5 results
|